LAOSAT 1

Last updated on Sun Jan 18 2026 00:02:47 GMT+0000 (Coordinated Universal Time)

1 41034U 15067A 26017.57180722 -.00000327 00000+0 00000+0 0 9990 2 41034 0.0110 110.8598 0001305 142.3484 198.1315 1.00270484 37355
UTC large
Height (km)
Speed (km/s)
/
Latitude / Longitude
Inclination (degrees)
Orbital Period (minutes)
Azimuth
Elevation
Range (km)
Doppler Factor

Next 0 passes for location: London (51.5072 / 0.1276)

Sorry there are no passes over London.